Hourly Weather Rugudzha

Today, 16 April, Friday

Time Temperature Precipitation Wind Pressure Humidity
00:00 +8°C° 0 mm 1 mps 642 mmHg 66%
01:00 +7°C° 0 mm 1 mps 642 mmHg 65%
02:00 +7°C° 0 mm 1 mps 642 mmHg 64%
03:00 +6°C° 0 mm 1 mps 642 mmHg 63%
04:00 +6°C° 0 mm 1 mps 642 mmHg 62%
05:00 +6°C° 0 mm 1 mps 642 mmHg 62%
06:00 +6°C° 0 mm 1 mps 643 mmHg 62%
07:00 +8°C° 0 mm 1 mps 643 mmHg 60%
08:00 +9°C° 0 mm 1 mps 643 mmHg 57%
09:00 +10°C° 0 mm 2 mps 643 mmHg 55%
10:00 +12°C° 0.1 mm 2 mps 643 mmHg 53%
11:00 +13°C° 0.1 mm 2 mps 643 mmHg 51%
12:00 +14°C° 0.1 mm 2 mps 643 mmHg 49%
13:00 +14°C° 0.3 mm 2 mps 643 mmHg 51%
14:00 +14°C° 0.3 mm 2 mps 643 mmHg 53%
15:00 +13°C° 0.3 mm 2 mps 643 mmHg 54%
16:00 +13°C° 0.3 mm 2 mps 643 mmHg 59%
17:00 +12°C° 0.3 mm 2 mps 643 mmHg 63%
18:00 +10°C° 0.3 mm 2 mps 643 mmHg 68%
19:00 +9°C° 0 mm 2 mps 643 mmHg 71%
20:00 +8°C° 0 mm 2 mps 643 mmHg 74%
21:00 +8°C° 0 mm 2 mps 643 mmHg 77%
22:00 +7°C° 0 mm 2 mps 643 mmHg 75%
23:00 +7°C° 0 mm 2 mps 643 mmHg 74%

Tomorrow, 17 April, Saturday

Time Temperature Precipitation Wind Pressure Humidity
00:00 +7°C° 0 mm 3 mps 643 mmHg 72%
01:00 +7°C° 0 mm 3 mps 643 mmHg 71%
02:00 +5°C° 0 mm 3 mps 643 mmHg 71%
03:00 +6°C° 0 mm 2 mps 643 mmHg 71%
04:00 +6°C° 0 mm 2 mps 643 mmHg 69%
05:00 +7°C° 0 mm 2 mps 643 mmHg 67%
06:00 +7°C° 0 mm 2 mps 643 mmHg 65%
07:00 +9°C° 0 mm 2 mps 643 mmHg 57%
08:00 +12°C° 0 mm 2 mps 644 mmHg 49%
09:00 +15°C° 0 mm 1 mps 644 mmHg 41%
10:00 +16°C° 0 mm 2 mps 644 mmHg 39%
11:00 +17°C° 0 mm 2 mps 644 mmHg 37%
12:00 +18°C° 0 mm 2 mps 644 mmHg 36%
13:00 +18°C° 0 mm 3 mps 644 mmHg 38%
14:00 +18°C° 0 mm 3 mps 644 mmHg 40%
15:00 +18°C° 0 mm 3 mps 644 mmHg 42%
16:00 +16°C° 0 mm 2 mps 644 mmHg 51%
17:00 +15°C° 0 mm 2 mps 644 mmHg 60%
18:00 +13°C° 0 mm 2 mps 644 mmHg 69%
19:00 +12°C° 0 mm 2 mps 644 mmHg 73%
20:00 +12°C° 0 mm 1 mps 644 mmHg 77%
21:00 +11°C° 0 mm 1 mps 644 mmHg 81%
22:00 +11°C° 0 mm 1 mps 644 mmHg 81%
23:00 +10°C° 0 mm 1 mps 644 mmHg 81%

Day after tomorrow, 18 April, Sunday

Time Temperature Precipitation Wind Pressure Humidity
00:00 +10°C° 0 mm 1 mps 644 mmHg 81%
01:00 +10°C° 0 mm 1 mps 644 mmHg 84%
02:00 +9°C° 0 mm 1 mps 643 mmHg 86%
03:00 +9°C° 0 mm 1 mps 643 mmHg 89%
04:00 +9°C° 0 mm 1 mps 643 mmHg 87%
05:00 +10°C° 0 mm 1 mps 643 mmHg 86%
06:00 +10°C° 0 mm 1 mps 643 mmHg 84%
07:00 +11°C° 0 mm 1 mps 643 mmHg 78%
08:00 +13°C° 0 mm 1 mps 643 mmHg 71%
09:00 +14°C° 0 mm 2 mps 643 mmHg 65%
10:00 +15°C° 0.1 mm 2 mps 643 mmHg 62%
11:00 +16°C° 0.1 mm 2 mps 643 mmHg 59%
12:00 +17°C° 0.1 mm 2 mps 643 mmHg 56%
13:00 +17°C° 0 mm 2 mps 643 mmHg 55%
14:00 +18°C° 0 mm 3 mps 643 mmHg 53%
15:00 +18°C° 0 mm 3 mps 642 mmHg 52%
16:00 +17°C° 0.2 mm 2 mps 642 mmHg 59%
17:00 +15°C° 0.2 mm 2 mps 642 mmHg 66%
18:00 +14°C° 0.2 mm 2 mps 642 mmHg 74%
19:00 +13°C° 0.5 mm 2 mps 642 mmHg 78%
20:00 +13°C° 0.5 mm 2 mps 643 mmHg 82%
21:00 +12°C° 0.5 mm 2 mps 643 mmHg 86%
22:00 +11°C° 0.2 mm 1 mps 643 mmHg 86%
23:00 +11°C° 0.2 mm 1 mps 643 mmHg 87%

19 April, Monday

Time Temperature Precipitation Wind Pressure Humidity
00:00 +11°C° 0.2 mm 1 mps 643 mmHg 88%
01:00 +11°C° 0 mm 1 mps 643 mmHg 86%
02:00 +11°C° 0 mm 1 mps 643 mmHg 83%
03:00 +11°C° 0 mm 1 mps 642 mmHg 81%
04:00 +11°C° 0 mm 1 mps 643 mmHg 79%
05:00 +11°C° 0 mm 1 mps 643 mmHg 77%
06:00 +11°C° 0 mm 1 mps 643 mmHg 75%
07:00 +13°C° 0 mm 1 mps 643 mmHg 68%
08:00 +14°C° 0 mm 1 mps 644 mmHg 61%
09:00 +16°C° 0 mm 1 mps 644 mmHg 54%
10:00 +18°C° 0 mm 1 mps 644 mmHg 51%
11:00 +18°C° 0 mm 2 mps 644 mmHg 47%
12:00 +19°C° 0 mm 3 mps 643 mmHg 44%
13:00 +19°C° 0.1 mm 3 mps 643 mmHg 46%
14:00 +19°C° 0.1 mm 3 mps 643 mmHg 49%
15:00 +19°C° 0.1 mm 3 mps 643 mmHg 51%
16:00 +18°C° 0.1 mm 3 mps 643 mmHg 56%
17:00 +17°C° 0.1 mm 2 mps 643 mmHg 60%
18:00 +16°C° 0.1 mm 2 mps 643 mmHg 64%
19:00 +15°C° 0 mm 2 mps 643 mmHg 67%
20:00 +14°C° 0 mm 2 mps 642 mmHg 69%
21:00 +13°C° 0 mm 2 mps 642 mmHg 72%
22:00 +13°C° 0 mm 2 mps 642 mmHg 71%
23:00 +12°C° 0 mm 3 mps 642 mmHg 71%

20 April, Tuesday

Time Temperature Precipitation Wind Pressure Humidity
00:00 +11°C° 0 mm 3 mps 642 mmHg 70%
01:00 +11°C° 0 mm 3 mps 641 mmHg 69%
02:00 +11°C° 0 mm 3 mps 641 mmHg 68%
03:00 +11°C° 0 mm 3 mps 641 mmHg 67%
04:00 +12°C° 0 mm 3 mps 641 mmHg 67%
05:00 +12°C° 0 mm 3 mps 641 mmHg 66%
06:00 +12°C° 0 mm 4 mps 641 mmHg 65%
07:00 +16°C° 0 mm 3 mps 641 mmHg 55%
08:00 +19°C° 0 mm 3 mps 641 mmHg 46%
09:00 +23°C° 0 mm 2 mps 641 mmHg 36%
10:00 +22°C° 0 mm 3 mps 641 mmHg 34%
11:00 +24°C° 0 mm 3 mps 641 mmHg 31%
12:00 +25°C° 0 mm 4 mps 641 mmHg 29%
13:00 +25°C° 0 mm 4 mps 640 mmHg 29%
14:00 +25°C° 0 mm 4 mps 640 mmHg 28%
15:00 +25°C° 0 mm 4 mps 640 mmHg 28%
16:00 +24°C° 0 mm 3 mps 640 mmHg 32%
17:00 +22°C° 0 mm 3 mps 639 mmHg 37%
18:00 +21°C° 0 mm 2 mps 639 mmHg 41%
19:00 +19°C° 0.7 mm 2 mps 639 mmHg 51%
20:00 +17°C° 0.7 mm 2 mps 639 mmHg 60%
21:00 +14°C° 0.7 mm 3 mps 640 mmHg 69%
22:00 +14°C° 0 mm 3 mps 639 mmHg 69%
23:00 +14°C° 0 mm 3 mps 639 mmHg 70%

21 April, Wednesday

Time Temperature Precipitation Wind Pressure Humidity
00:00 +14°C° 0 mm 2 mps 639 mmHg 70%
01:00 +12°C° 0 mm 3 mps 639 mmHg 74%
02:00 +11°C° 0 mm 3 mps 640 mmHg 79%
03:00 +10°C° 0 mm 3 mps 640 mmHg 83%
04:00 +9°C° 0 mm 2 mps 640 mmHg 84%
05:00 +9°C° 0 mm 2 mps 641 mmHg 85%
06:00 +8°C° 0 mm 2 mps 641 mmHg 86%
07:00 +8°C° 0 mm 2 mps 642 mmHg 84%
08:00 +8°C° 0 mm 2 mps 642 mmHg 82%
09:00 +8°C° 0 mm 2 mps 643 mmHg 79%
10:00 +9°C° 0 mm 2 mps 643 mmHg 76%
11:00 +9°C° 0 mm 2 mps 643 mmHg 73%
12:00 +9°C° 0 mm 2 mps 643 mmHg 69%
13:00 +9°C° 0.1 mm 2 mps 643 mmHg 66%
14:00 +10°C° 0.1 mm 2 mps 643 mmHg 62%
15:00 +12°C° 0.1 mm 2 mps 643 mmHg 59%
16:00 +10°C° 0.1 mm 2 mps 643 mmHg 60%
17:00 +9°C° 0.1 mm 2 mps 643 mmHg 61%
18:00 +9°C° 0.1 mm 2 mps 643 mmHg 63%
19:00 +9°C° 0 mm 1 mps 643 mmHg 68%
20:00 +8°C° 0 mm 1 mps 643 mmHg 73%
21:00 +8°C° 0 mm 1 mps 644 mmHg 78%
22:00 +7°C° 0 mm 1 mps 644 mmHg 81%
23:00 +6°C° 0 mm 0 mps 643 mmHg 85%
Show more